CW9861 Weather Reports


time (UTC)temp
F
wind
direction
speed
knots
gust
knots
rain 1hr
in
rain 24hr
in
rain mn
in
humidity
%
barometer
mb
20260901053459 72 303 0.0 0.9 0.00 0.11 0.00 88 1012.5
20260901052958 72 320 0.0 0.0 0.00 0.11 0.00 88 1012.5
20260901052459 72 320 0.0 1.7 0.00 0.11 0.00 88 1012.5
20260901052000 72 320 0.0 1.7 0.00 0.11 0.00 88 1012.4
20260901051458 72 299 0.0 0.9 0.00 0.11 0.00 87 1012.5
20260901050958 72 299 0.0 0.9 0.00 0.11 0.00 87 1012.4
20260901050458 72 299 0.0 0.9 0.00 0.11 0.00 87 1012.4
20260901045959 72 299 0.0 0.9 0.00 0.11 0.00 86 1012.4
20260901045459 72 299 0.0 0.0 0.00 0.11 0.00 86 1012.5
20260901044958 73 299 0.0 0.0 0.00 0.11 0.00 86 1012.5
20260901044459 73 299 0.0 0.0 0.00 0.11 0.00 86 1012.4
20260901043959 73 299 0.0 0.0 0.00 0.11 0.00 86 1012.4
20260901043458 73 299 0.0 0.0 0.00 0.11 0.00 86 1012.4
20260901042959 73 299 0.0 0.0 0.00 0.11 0.00 86 1012.4
20260901042459 73 299 0.0 0.0 0.00 0.11 0.00 86 1012.4
20260901041958 74 299 0.0 0.0 0.00 0.11 0.00 86 1012.5
20260901041459 74 299 0.0 0.0 0.00 0.11 0.00 86 1012.5
20260901040959 74 299 0.0 0.9 0.00 0.11 0.00 86 1012.5
20260901040459 74 299 0.0 0.9 0.00 0.11 0.00 86 1012.6
20260901040005 74 299 0.0 0.0 0.00 0.11 0.00 86 1012.6
20260901035459 74 299 0.0 0.0 0.00 0.11 0.11 86 1012.7
20260901035000 75 299 0.0 0.0 0.00 0.11 0.11 86 1012.5
20260901034459 75 299 0.0 0.9 0.00 0.11 0.11 86 1012.6
20260901034000 75 349 0.0 0.9 0.00 0.11 0.11 86 1012.7
20260901033459 75 349 0.0 0.9 0.00 0.11 0.11 86 1012.6
20260901032959 75 349 0.0 1.7 0.00 0.11 0.11 86 1012.6
20260901032459 75 221 0.0 1.7 0.00 0.11 0.11 85 1012.4
20260901031959 75 228 0.0 0.9 0.00 0.11 0.11 85 1012.5
20260901031459 76 227 0.0 0.9 0.00 0.11 0.11 85 1012.5
20260901031000 76 226 0.0 1.7 0.00 0.11 0.11 85 1012.7
20260901030500 76 232 0.0 1.7 0.00 0.11 0.11 85 1012.6
20260901030000 76 290 0.0 1.7 0.00 0.11 0.11 85 1012.6
20260901025500 76 307 0.0 0.9 0.00 0.11 0.11 85 1012.7
20260901021959 76 286 2.6 7.8 0.00 0.11 0.11 85 1012.3
20260901021459 76 242 0.0 3.5 0.00 0.11 0.11 85 1012.4
20260901020959 76 243 0.0 2.6 0.00 0.11 0.11 84 1012.6
20260901020459 76 207 0.9 2.6 0.00 0.11 0.11 84 1012.5
20260901015959 77 280 0.0 0.9 0.00 0.11 0.11 84 1012.5
20260901015459 77 327 0.0 0.9 0.00 0.11 0.11 84 1012.4
20260901014959 77 226 0.0 0.9 0.00 0.11 0.11 84 1012.4
20260901014459 77 225 0.0 0.9 0.00 0.11 0.11 84 1012.4
20260901014000 77 245 0.0 0.9 0.00 0.11 0.11 84 1012.5
20260901013459 77 245 0.0 1.7 0.00 0.11 0.11 84 1012.3
20260901012959 77 245 0.0 2.6 0.00 0.11 0.11 84 1012.4
20260901012459 77 288 0.9 2.6 0.00 0.11 0.11 84 1012.4
20260901011958 77 313 0.9 2.6 0.00 0.11 0.11 83 1012.4
20260901011459 77 234 0.9 2.6 0.00 0.11 0.11 83 1012.3
20260901010959 77 262 0.0 2.6 0.00 0.11 0.11 83 1012.3
20260901010459 78 296 1.7 3.5 0.00 0.11 0.11 83 1012.1
20260901010000 78 201 0.9 3.5 0.00 0.11 0.11 83 1012.2
20260901005459 78 209 0.0 2.6 0.00 0.11 0.11 83 1012.2
20260901004959 78 192 0.9 2.6 0.00 0.11 0.11 83 1012.2
20260901004459 78 238 0.9 3.5 0.00 0.11 0.11 83 1012.3
20260901003959 78 200 1.7 3.5 0.00 0.11 0.11 83 1012.3
20260901003459 78 296 0.0 4.3 0.00 0.11 0.11 83 1012.3
20260901002959 78 251 1.7 2.6 0.00 0.11 0.11 83 1012.3
20260901002459 78 266 0.9 3.5 0.00 0.11 0.11 83 1012.3
20260901001959 78 241 1.7 3.5 0.00 0.11 0.11 83 1012.3
20260901001459 78 212 0.9 4.3 0.00 0.11 0.11 83 1012.2
20260901001000 78 343 1.7 5.2 0.00 0.11 0.11 83 1012.1
20260901000459 78 219 0.9 2.6 0.00 0.11 0.11 83 1012.1
20260901000001 78 230 0.9 4.3 0.00 0.11 0.11 83 1012.0
20260831235500 78 197 1.7 4.3 0.00 0.11 0.11 84 1011.9
20260831235000 78 207 0.9 3.5 0.00 0.11 0.11 84 1011.8
20260831234501 78 213 0.9 2.6 0.00 0.11 0.11 84 1011.9
20260831234000 79 180 0.0 2.6 0.00 0.11 0.11 84 1011.9
20260831233504 79 244 0.0 0.9 0.00 0.11 0.11 84 1011.9
20260831233000 79 222 0.0 0.9 0.00 0.11 0.11 84 1011.8
20260831232500 79 222 0.0 0.0 0.00 0.11 0.11 84 1011.8
20260831231959 79 222 0.0 2.6 0.00 0.11 0.11 84 1011.9
20260831231500 79 222 0.0 2.6 0.00 0.11 0.11 83 1012.0
20260831231000 79 185 0.0 2.6 0.00 0.11 0.11 83 1012.0
20260831230501 79 205 0.9 2.6 0.00 0.11 0.11 83 1011.9
20260831225959 79 232 0.0 2.6 0.00 0.11 0.11 83 1011.9
20260831225459 79 234 0.9 2.6 0.00 0.11 0.11 83 1011.8
20260831224959 80 174 0.0 2.6 0.00 0.11 0.11 82 1011.7
20260831224459 80 196 0.9 3.5 0.00 0.11 0.11 82 1011.8
20260831224000 80 276 0.0 5.2 0.00 0.11 0.11 82 1011.6
20260831223459 80 192 0.9 3.5 0.00 0.11 0.11 81 1011.6
20260831215459 82 260 2.6 10.4 0.00 0.11 0.11 75 1011.7
20260831214959 82 205 1.7 7.0 0.00 0.11 0.11 75 1011.8
20260831214458 82 203 1.7 7.0 0.00 0.11 0.11 76 1011.7
20260831213959 82 184 4.3 7.8 0.00 0.11 0.11 74 1011.7
20260831213500 82 159 0.9 7.0 0.00 0.11 0.11 78 1011.8
20260831212959 82 30 0.9 7.0 0.00 0.11 0.11 75 1011.8
20260831212459 82 297 1.7 6.1 0.00 0.11 0.11 75 1011.7
20260831211802 82 176 2.6 8.7 0.00 0.11 0.11 74 1011.7
20260831211303 82 196 1.7 7.0 0.00 0.11 0.11 75 1011.7
20260831210803 82 151 2.6 9.6 0.00 0.11 0.11 74 1011.7
20260831210302 82 228 3.5 9.6 0.00 0.11 0.11 73 1011.7
20260831205802 82 187 2.6 7.8 0.00 0.11 0.11 74 1011.8
20260831205305 82 207 2.6 8.7 0.00 0.11 0.11 73 1011.8
20260831195306 80 212 1.7 11.3 0.00 0.11 0.11 79 1012.1
20260831194804 80 186 3.5 11.3 0.00 0.11 0.11 76 1012.0
20260831194303 81 97 2.6 5.2 0.00 0.11 0.11 78 1012.1
20260831193804 81 257 0.9 7.0 0.00 0.11 0.11 76 1012.2
20260831193304 80 173 1.7 7.8 0.00 0.11 0.11 79 1012.3
20260831192804 78 284 3.5 7.8 0.00 0.11 0.11 82 1012.3
20260831192305 77 155 1.7 5.2 0.00 0.11 0.11 84 1012.4
20260831191803 76 224 1.7 5.2 0.00 0.11 0.11 84 1012.4
20260831191303 76 228 1.7 8.7 0.00 0.11 0.11 84 1012.5
20260831190803 75 236 1.7 6.1 0.00 0.11 0.11 85 1013.0
20260831190304 75 223 1.7 7.0 0.00 0.11 0.11 85 1013.0
20260831185802 75 182 1.7 7.0 0.00 0.11 0.11 85 1013.0
20260831185301 75 192 0.9 2.6 0.00 0.11 0.11 85 1013.1
20260831184802 76 105 0.0 1.7 0.00 0.11 0.11 84 1013.3
20260831184302 76 155 0.0 2.6 0.00 0.11 0.11 84 1013.4
20260831183802 76 221 0.0 2.6 0.00 0.11 0.11 84 1013.3
20260831183302 76 181 0.0 2.6 0.00 0.11 0.11 84 1012.9
20260831182803 76 217 0.9 4.3 0.00 0.11 0.11 84 1012.9
20260831182305 76 178 0.9 1.7 0.00 0.11 0.11 84 1013.3
20260831181802 77 157 0.9 2.6 0.00 0.11 0.11 84 1013.4
20260831181302 77 170 0.9 2.6 0.00 0.11 0.11 83 1013.8
20260831173303 79 147 1.7 6.1 0.00 0.11 0.11 83 1013.4
20260831172803 79 253 1.7 6.1 0.00 0.11 0.11 82 1013.3
20260831172306 78 192 1.7 5.2 0.00 0.11 0.11 82 1013.4
20260831171802 78 172 1.7 6.1 0.00 0.11 0.11 83 1013.3
20260831171303 78 266 1.7 6.1 0.00 0.11 0.11 84 1013.3
20260831170803 77 205 2.6 6.1 0.00 0.11 0.11 83 1013.4
20260831170304 78 130 0.9 7.0 0.00 0.11 0.11 84 1013.4
20260831165802 78 226 1.7 6.1 0.00 0.11 0.11 82 1013.4
20260831165305 78 139 2.6 6.1 0.00 0.11 0.11 83 1013.6
20260831164803 78 224 2.6 7.0 0.00 0.11 0.11 86 1014.0
20260831164302 77 219 0.9 5.2 0.00 0.11 0.11 86 1014.0
20260831163802 77 242 1.7 5.2 0.00 0.11 0.11 85 1014.0
20260831163302 76 187 1.7 4.3 0.00 0.11 0.11 86 1013.8
20260831162803 76 208 1.7 7.0 0.00 0.11 0.11 88 1013.8
20260831162301 75 215 3.5 7.0 0.00 0.11 0.11 88 1013.9
20260831161802 74 200 1.7 7.8 0.00 0.11 0.11 89 1014.0
20260831161302 74 204 1.7 7.8 0.00 0.11 0.11 89 1014.2
20260831160803 74 199 0.9 6.1 0.00 0.11 0.11 90 1014.2
20260831160301 73 179 2.6 6.1 0.00 0.11 0.11 89 1014.3
20260831155803 73 271 0.9 5.2 0.00 0.11 0.11 90 1014.4
20260831155302 73 230 0.9 6.1 0.00 0.11 0.11 90 1014.3
20260831154802 72 225 2.6 6.1 0.00 0.11 0.11 90 1014.2
20260831154303 72 181 0.9 3.5 0.00 0.11 0.11 90 1014.2
20260831153802 72 143 0.9 4.3 0.00 0.11 0.11 91 1014.3
20260831153301 72 182 1.7 4.3 0.00 0.11 0.11 91 1014.4
20260831152801 72 232 0.9 3.5 0.01 0.11 0.11 91 1014.6
20260831152305 72 216 0.9 2.6 0.08 0.11 0.11 91 1014.3
20260831151802 72 175 0.9 2.6 0.08 0.11 0.11 91 1014.5
20260831143801 71 67 0.0 2.6 0.10 0.11 0.11 91 1015.1
20260831143301 71 67 0.9 2.6 0.10 0.11 0.11 91 1014.9
20260831142802 71 59 0.0 1.7 0.10 0.10 0.10 91 1014.6
20260831142305 71 59 0.0 0.0 0.03 0.03 0.03 91 1014.8
20260831141802 71 59 0.0 2.6 0.03 0.03 0.03 91 1015.0
20260831141302 71 46 1.7 2.6 0.03 0.03 0.03 91 1014.7
20260831140801 71 271 0.0 0.9 0.03 0.03 0.03 91 1014.6
20260831140302 71 271 0.0 0.0 0.02 0.03 0.02 91 1014.8
20260831135802 71 271 0.0 0.0 0.02 0.03 0.02 91 1014.8
20260831135302 71 271 0.0 0.0 0.02 0.03 0.02 90 1014.8
20260831134802 71 271 0.0 0.0 0.02 0.03 0.02 91 1014.8
20260831134302 71 271 0.0 0.0 0.02 0.03 0.02 91 1015.1
20260831133802 71 271 0.0 0.0 0.01 0.02 0.01 91 1015.2
20260831133302 71 271 0.0 0.0 0.01 0.02 0.01 91 1015.4
20260831132801 71 271 0.0 0.0 0.00 0.01 0.00 91 1015.4
20260831132306 71 271 0.0 0.0 0.00 0.01 0.00 91 1015.4
20260831131801 71 271 0.0 0.0 0.00 0.01 0.00 91 1015.2
20260831131302 71 271 0.0 0.0 0.00 0.01 0.00 90 1015.2
20260831130802 70 271 0.0 0.0 0.00 0.01 0.00 90 1015.0
20260831130305 70 271 0.0 0.9 0.00 0.01 0.00 90 1015.0
20260831125803 70 271 0.0 0.9 0.00 0.06 0.00 90 1014.9
20260831121802 70 271 0.9 2.6 0.00 0.06 0.00 91 1014.1
20260831121302 69 234 0.9 3.5 0.00 0.06 0.00 91 1013.9
20260831120802 69 186 0.9 3.5 0.00 0.06 0.00 91 1013.8
20260831120304 69 210 0.9 1.7 0.00 0.06 0.00 90 1013.9
20260831115803 69 192 0.0 0.9 0.00 0.24 0.00 90 1014.1
20260831115305 69 192 0.0 0.9 0.00 0.24 0.00 90 1014.2
20260831114802 69 192 0.0 0.9 0.00 0.24 0.00 91 1014.1
20260831114302 69 203 0.0 0.9 0.00 0.24 0.00 90 1014.1
20260831113803 69 204 0.0 0.9 0.00 0.24 0.00 90 1014.1
20260831113301 69 220 0.0 1.7 0.00 0.24 0.00 90 1014.0
20260831112801 69 41 0.0 0.9 0.00 0.24 0.00 90 1013.9
20260831112306 69 159 0.0 1.7 0.00 0.24 0.00 90 1013.8
20260831111802 69 159 0.9 1.7 0.00 0.24 0.00 90 1013.8
20260831111302 69 221 0.0 0.9 0.00 0.24 0.00 90 1013.8
20260831110802 69 221 0.0 0.9 0.00 0.24 0.00 90 1013.8
20260831110302 69 221 0.0 0.9 0.00 0.42 0.00 90 1013.8
20260831105801 69 221 0.0 2.6 0.00 0.42 0.00 90 1013.7
20260831105305 68 157 0.0 2.6 0.00 0.42 0.00 90 1013.7
20260831104801 68 163 0.9 2.6 0.00 0.42 0.00 90 1013.8
20260831104302 68 213 0.0 0.9 0.00 0.42 0.00 90 1013.8
20260831103801 68 336 0.0 0.9 0.00 0.42 0.00 90 1013.9
20260831103302 69 336 0.0 0.0 0.00 0.42 0.00 90 1013.9
20260831102802 69 336 0.0 0.0 0.00 0.42 0.00 90 1014.0
20260831102305 69 336 0.0 0.0 0.00 0.42 0.00 90 1014.1
20260831101802 69 336 0.0 0.0 0.00 0.42 0.00 90 1014.1
20260831101302 69 336 0.0 0.0 0.00 0.42 0.00 90 1014.2
20260831100802 69 336 0.0 0.0 0.00 0.42 0.00 90 1014.2
20260831100301 69 336 0.0 0.0 0.00 0.42 0.00 90 1014.3
20260831095802 69 336 0.0 0.0 0.00 0.42 0.00 90 1014.2
20260831095301 69 336 0.0 0.0 0.00 0.42 0.00 90 1014.3
20260831094801 69 336 0.0 0.0 0.00 0.42 0.00 90 1014.3
20260831094302 69 336 0.0 0.0 0.00 0.42 0.00 90 1014.4
20260831093801 69 336 0.0 0.0 0.00 0.42 0.00 90 1014.4
20260831093301 69 336 0.0 0.9 0.00 0.42 0.00 90 1014.4
20260831092802 69 336 0.0 0.9 0.00 0.42 0.00 90 1014.4
20260831092306 69 336 0.0 0.9 0.00 0.42 0.00 90 1014.4
20260831091556 69 347 0.0 0.9 0.00 0.42 0.00 90 1014.3
20260831091055 69 349 0.0 0.9 0.00 0.42 0.00 90 1014.3
20260831090555 69 266 0.0 0.9 0.00 0.42 0.00 90 1014.4
20260831090056 69 288 0.0 0.9 0.00 0.42 0.00 90 1014.4
20260831085556 69 276 0.0 0.9 0.00 0.42 0.00 90 1014.4
20260831085055 69 276 0.0 1.7 0.00 0.42 0.00 90 1014.3
20260831084555 69 326 0.0 1.7 0.00 0.42 0.00 90 1014.3
20260831084055 69 258 0.0 0.9 0.00 0.42 0.00 90 1014.2
20260831083555 69 258 0.0 0.9 0.00 0.42 0.00 90 1014.3
20260831083055 69 258 0.0 1.7 0.00 0.42 0.00 90 1014.3
20260831082555 69 276 0.9 1.7 0.00 0.42 0.00 90 1014.1
20260831082055 68 165 0.0 0.9 0.00 0.42 0.00 90 1014.1
20260831081556 69 159 0.0 1.7 0.00 0.42 0.00 90 1014.3
20260831081056 69 145 0.0 1.7 0.00 0.42 0.00 90 1014.1
20260831080555 69 46 0.0 0.9 0.00 0.42 0.00 90 1014.2
20260831080058 69 46 0.0 0.9 0.00 0.42 0.00 90 1014.3
20260831075556 68 61 0.0 0.9 0.00 0.42 0.00 90 1014.2
20260831075057 68 61 0.0 0.9 0.00 0.42 0.00 90 1014.2
20260831074557 68 61 0.0 0.9 0.00 0.42 0.00 90 1014.2
20260831074057 69 61 0.0 0.0 0.00 0.42 0.00 90 1014.2
20260831073556 69 61 0.0 0.0 0.00 0.42 0.00 90 1014.3
20260831073057 69 61 0.0 0.0 0.00 0.42 0.00 90 1014.3
20260831072556 69 61 0.0 0.9 0.00 0.42 0.00 90 1014.4
20260831072056 69 61 0.0 0.9 0.00 0.42 0.00 90 1014.3
20260831071556 69 55 0.0 0.0 0.00 0.42 0.00 90 1014.3
20260831071056 69 55 0.0 0.0 0.00 0.42 0.00 90 1014.4
20260831063056 69 82 0.0 1.7 0.00 0.42 0.00 90 1014.3
20260831062556 69 58 0.0 0.9 0.00 0.42 0.00 89 1014.3
20260831062056 69 55 0.0 0.9 0.00 0.42 0.00 89 1014.3
20260831061555 69 55 0.0 1.7 0.00 0.42 0.00 89 1014.2
20260831061055 69 55 0.0 1.7 0.00 0.42 0.00 89 1014.4
20260831060556 69 55 0.0 0.0 0.00 0.42 0.00 89 1014.5
20260831060056 69 55 0.0 0.0 0.00 0.42 0.00 89 1014.5
20260831055555 69 55 0.0 0.0 0.00 0.42 0.00 90 1014.6
20260831055055 69 55 0.0 0.9 0.00 0.42 0.00 90 1014.6